Time,TemperatureF,DewpointF,PressureIn,WindDirection,WindDirectionDegrees,WindSpeedMPH,WindSpeedGustMPH,Humidity,HourlyPrecipIn,Conditions,Clouds,dailyrainin,SoftwareType,DateUTC
2013-03-08 00:01:00,35.0,30.7,30.28,NE,49,5.0,8.0,84,0.00,,SKC,0.00,VWS V13.00,2013-03-08 06:01:00,
2013-03-08 00:06:00,34.8,30.5,30.28,NE,49,5.0,7.0,84,0.00,,SKC,0.00,VWS V13.00,2013-03-08 06:06:00,
2013-03-08 00:11:00,34.4,30.4,30.28,NE,51,4.0,7.0,85,0.00,,SKC,0.00,VWS V13.00,2013-03-08 06:11:00,
2013-03-08 00:16:00,34.2,30.2,30.28,ENE,59,5.0,7.0,85,0.00,,SKC,0.00,VWS V13.00,2013-03-08 06:16:00,
2013-03-08 00:21:00,34.2,30.5,30.28,NE,56,5.0,7.0,86,0.00,,SKC,0.00,VWS V13.00,2013-03-08 06:21:00,
2013-03-08 00:26:00,34.3,30.3,30.28,NE,55,4.0,7.0,85,0.00,,SKC,0.00,VWS V13.00,2013-03-08 06:26:00,
2013-03-08 00:31:00,34.1,29.8,30.28,ENE,62,4.0,7.0,84,0.00,,SKC,0.00,VWS V13.00,2013-03-08 06:31:00,
2013-03-08 00:36:00,33.9,29.9,30.28,ENE,65,6.0,7.0,85,0.00,,SKC,0.00,VWS V13.00,2013-03-08 06:36:00,
2013-03-08 00:41:00,34.1,30.1,30.28,NE,46,7.0,7.0,85,0.00,,SKC,0.00,VWS V13.00,2013-03-08 06:41:00,
2013-03-08 00:46:00,34.3,30.3,30.28,NE,53,5.0,8.0,85,0.00,,SKC,0.00,VWS V13.00,2013-03-08 06:46:00,
2013-03-08 00:51:00,34.1,30.1,30.29,ENE,63,3.0,8.0,85,0.00,,SKC,0.00,VWS V13.00,2013-03-08 06:51:00,
2013-03-08 00:55:00,33.7,29.7,30.29,ENE,57,2.0,8.0,85,0.00,,SKC,0.00,VWS V13.00,2013-03-08 06:55:00,
2013-03-08 01:00:00,33.4,29.4,30.29,ENE,57,2.0,8.0,85,0.00,,SKC,0.00,VWS V13.00,2013-03-08 07:00:00,
2013-03-08 01:05:00,33.1,29.4,30.28,NE,46,1.0,4.0,86,0.00,,SKC,0.00,VWS V13.00,2013-03-08 07:05:00,
2013-03-08 01:10:00,32.9,29.2,30.29,NE,53,1.0,4.0,86,0.00,,SKC,0.00,VWS V13.00,2013-03-08 07:10:00,
2013-03-08 01:15:00,32.8,29.4,30.29,ENE,65,3.0,4.0,87,0.00,,SKC,0.00,VWS V13.00,2013-03-08 07:15:00,
2013-03-08 01:20:00,32.6,28.9,30.29,ENE,65,2.0,4.0,86,0.00,,SKC,0.00,VWS V13.00,2013-03-08 07:20:00,
2013-03-08 01:25:00,32.3,28.9,30.29,ENE,59,2.0,5.0,87,0.00,,SKC,0.00,VWS V13.00,2013-03-08 07:25:00,
2013-03-08 01:30:00,32.2,28.8,30.28,ENE,60,1.0,5.0,87,0.00,,SKC,0.00,VWS V13.00,2013-03-08 07:30:00,
2013-03-08 01:35:00,32.0,28.6,30.28,ENE,65,1.0,3.0,87,0.00,,SKC,0.00,VWS V13.00,2013-03-08 07:35:00,
2013-03-08 01:40:00,31.7,28.6,30.28,ENE,69,2.0,3.0,88,0.00,,SKC,0.00,VWS V13.00,2013-03-08 07:40:00,
2013-03-08 01:45:00,31.6,28.5,30.28,ENE,62,1.0,4.0,88,0.00,,SKC,0.00,VWS V13.00,2013-03-08 07:45:00,
2013-03-08 01:50:00,31.5,28.4,30.28,ENE,57,3.0,5.0,88,0.00,,SKC,0.00,VWS V13.00,2013-03-08 07:50:00,
2013-03-08 01:55:00,31.4,28.5,30.28,NE,56,5.0,5.0,89,0.00,,SKC,0.00,VWS V13.00,2013-03-08 07:55:00,
2013-03-08 02:00:00,31.5,28.6,30.28,NE,52,5.0,5.0,89,0.00,,SKC,0.00,VWS V13.00,2013-03-08 08:00:00,
2013-03-08 02:05:00,31.6,28.7,30.28,ENE,61,2.0,6.0,89,0.00,,SKC,0.00,VWS V13.00,2013-03-08 08:05:00,
2013-03-08 02:10:00,31.6,28.7,30.28,ENE,59,4.0,6.0,89,0.00,,SKC,0.00,VWS V13.00,2013-03-08 08:10:00,
2013-03-08 02:15:00,31.5,28.4,30.28,NE,55,5.0,6.0,88,0.00,,SKC,0.00,VWS V13.00,2013-03-08 08:15:00,
2013-03-08 02:20:00,31.2,28.3,30.28,NE,54,6.0,7.0,89,0.00,,SKC,0.00,VWS V13.00,2013-03-08 08:20:00,
2013-03-08 02:25:00,31.2,28.3,30.27,ENE,57,5.0,7.0,89,0.00,,SKC,0.00,VWS V13.00,2013-03-08 08:25:00,
2013-03-08 02:30:00,31.1,28.2,30.27,ENE,58,5.0,7.0,89,0.00,,SKC,0.00,VWS V13.00,2013-03-08 08:30:00,
2013-03-08 02:35:00,31.1,28.5,30.27,ENE,65,7.0,8.0,90,0.00,,SKC,0.00,VWS V13.00,2013-03-08 08:35:00,
2013-03-08 02:40:00,31.5,28.6,30.26,ENE,57,7.0,9.0,89,0.00,,SKC,0.00,VWS V13.00,2013-03-08 08:40:00,
2013-03-08 02:45:00,31.4,28.5,30.26,NE,51,6.0,9.0,89,0.00,,SKC,0.00,VWS V13.00,2013-03-08 08:45:00,
2013-03-08 02:50:00,31.4,28.5,30.27,ENE,57,8.0,9.0,89,0.00,,SKC,0.00,VWS V13.00,2013-03-08 08:50:00,
2013-03-08 02:55:00,31.4,28.5,30.27,NE,53,5.0,9.0,89,0.00,,SKC,0.00,VWS V13.00,2013-03-08 08:55:00,
2013-03-08 03:00:00,31.2,28.3,30.27,NE,54,6.0,9.0,89,0.00,,SKC,0.00,VWS V13.00,2013-03-08 09:00:00,
2013-03-08 03:05:00,31.2,28.3,30.27,ENE,64,7.0,7.0,89,0.00,,SKC,0.00,VWS V13.00,2013-03-08 09:05:00,
2013-03-08 03:10:00,31.3,28.4,30.27,NE,46,5.0,9.0,89,0.00,,SKC,0.00,VWS V13.00,2013-03-08 09:10:00,
2013-03-08 03:15:00,31.3,28.4,30.27,ENE,67,6.0,9.0,89,0.00,,SKC,0.00,VWS V13.00,2013-03-08 09:15:00,
2013-03-08 03:20:00,31.2,28.3,30.27,ENE,64,8.0,9.0,89,0.00,,SKC,0.00,VWS V13.00,2013-03-08 09:20:00,
2013-03-08 03:25:00,31.3,28.4,30.27,ENE,67,6.0,9.0,89,0.00,,SKC,0.00,VWS V13.00,2013-03-08 09:25:00,
2013-03-08 03:30:00,31.2,28.3,30.27,NE,48,5.0,9.0,89,0.00,,SKC,0.00,VWS V13.00,2013-03-08 09:30:00,
2013-03-08 03:35:00,31.1,28.2,30.27,NE,51,6.0,7.0,89,0.00,,SKC,0.00,VWS V13.00,2013-03-08 09:35:00,
2013-03-08 03:40:00,31.0,28.1,30.28,ENE,62,4.0,9.0,89,0.00,,SKC,0.00,VWS V13.00,2013-03-08 09:40:00,
2013-03-08 03:45:00,31.0,28.1,30.28,NE,51,6.0,9.0,89,0.00,,SKC,0.00,VWS V13.00,2013-03-08 09:45:00,
2013-03-08 03:50:00,31.1,28.2,30.28,ENE,59,5.0,9.0,89,0.00,,SKC,0.00,VWS V13.00,2013-03-08 09:50:00,
2013-03-08 03:55:00,31.0,28.1,30.28,NE,53,2.0,9.0,89,0.00,,SKC,0.00,VWS V13.00,2013-03-08 09:55:00,
2013-03-08 04:00:00,30.8,28.0,30.29,NE,54,1.0,9.0,89,0.00,,SKC,0.00,VWS V13.00,2013-03-08 10:00:00,
2013-03-08 04:05:00,30.6,27.5,30.29,ENE,58,2.0,2.0,88,0.00,,SKC,0.00,VWS V13.00,2013-03-08 10:05:00,
2013-03-08 04:10:00,30.4,27.5,30.29,ENE,63,1.0,4.0,89,0.00,,SKC,0.00,VWS V13.00,2013-03-08 10:10:00,
2013-03-08 04:15:00,30.4,27.5,30.30,ENE,63,0.0,4.0,89,0.00,,SKC,0.00,VWS V13.00,2013-03-08 10:15:00,
2013-03-08 04:20:00,30.2,27.4,30.30,ENE,63,0.0,4.0,89,0.00,,SKC,0.00,VWS V13.00,2013-03-08 10:20:00,
2013-03-08 04:25:00,30.2,27.6,30.30,NE,56,1.0,4.0,90,0.00,,SKC,0.00,VWS V13.00,2013-03-08 10:25:00,
2013-03-08 04:30:00,30.1,27.3,30.30,NE,51,0.0,4.0,89,0.00,,SKC,0.00,VWS V13.00,2013-03-08 10:30:00,
2013-03-08 04:35:00,30.0,27.4,30.30,NE,51,2.0,3.0,90,0.00,,SKC,0.00,VWS V13.00,2013-03-08 10:35:00,
2013-03-08 04:40:00,29.9,27.3,30.30,NE,51,3.0,3.0,90,0.00,,SKC,0.00,VWS V13.00,2013-03-08 10:40:00,
2013-03-08 04:45:00,29.9,27.3,30.31,NE,48,1.0,4.0,90,0.00,,SKC,0.00,VWS V13.00,2013-03-08 10:45:00,
2013-03-08 04:50:00,29.9,27.3,30.31,NE,48,0.0,4.0,90,0.00,,SKC,0.00,VWS V13.00,2013-03-08 10:50:00,
2013-03-08 04:55:00,29.7,27.1,30.31,NE,47,1.0,4.0,90,0.00,,SKC,0.00,VWS V13.00,2013-03-08 10:55:00,
2013-03-08 05:00:00,29.9,27.6,30.31,NE,38,2.0,4.0,91,0.00,,SKC,0.00,VWS V13.00,2013-03-08 11:00:00,
2013-03-08 05:05:00,30.0,27.4,30.32,NE,41,1.0,4.0,90,0.00,,SKC,0.00,VWS V13.00,2013-03-08 11:05:00,
2013-03-08 05:10:00,29.8,27.2,30.31,NE,42,1.0,4.0,90,0.00,,SKC,0.00,VWS V13.00,2013-03-08 11:10:00,
2013-03-08 05:15:00,29.5,26.9,30.31,NE,42,1.0,4.0,90,0.00,,SKC,0.00,VWS V13.00,2013-03-08 11:15:00,
2013-03-08 05:20:00,29.2,26.9,30.32,NE,42,4.0,4.0,91,0.00,,SKC,0.00,VWS V13.00,2013-03-08 11:20:00,
2013-03-08 05:25:00,29.1,27.1,30.32,NE,39,4.0,5.0,92,0.00,,SKC,0.00,VWS V13.00,2013-03-08 11:25:00,
2013-03-08 05:30:00,29.2,26.9,30.32,NE,45,4.0,5.0,91,0.00,,SKC,0.00,VWS V13.00,2013-03-08 11:30:00,
2013-03-08 05:35:00,29.0,26.7,30.32,NE,51,4.0,5.0,91,0.00,,SKC,0.00,VWS V13.00,2013-03-08 11:35:00,
2013-03-08 05:40:00,28.8,26.8,30.32,NE,53,3.0,5.0,92,0.00,,SKC,0.00,VWS V13.00,2013-03-08 11:40:00,
2013-03-08 05:45:00,28.5,26.5,30.31,NE,53,2.0,5.0,92,0.00,,SKC,0.00,VWS V13.00,2013-03-08 11:45:00,
2013-03-08 05:50:00,28.2,26.2,30.31,ENE,60,5.0,5.0,92,0.00,,SKC,0.00,VWS V13.00,2013-03-08 11:50:00,
2013-03-08 05:55:00,28.1,26.3,30.31,ENE,57,1.0,5.0,93,0.00,,SKC,0.00,VWS V13.00,2013-03-08 11:55:00,
2013-03-08 06:00:00,28.0,26.0,30.31,ENE,58,2.0,5.0,92,0.00,,SKC,0.00,VWS V13.00,2013-03-08 12:00:00,
2013-03-08 06:05:00,27.9,26.1,30.32,ENE,63,1.0,3.0,93,0.00,,SKC,0.00,VWS V13.00,2013-03-08 12:05:00,
2013-03-08 06:10:00,27.9,26.1,30.32,ENE,74,2.0,4.0,93,0.00,,SKC,0.00,VWS V13.00,2013-03-08 12:10:00,
2013-03-08 06:15:00,28.1,26.3,30.32,ENE,59,2.0,4.0,93,0.00,,SKC,0.00,VWS V13.00,2013-03-08 12:15:00,
2013-03-08 06:20:00,28.4,26.6,30.32,ENE,64,2.0,4.0,93,0.00,,SKC,0.00,VWS V13.00,2013-03-08 12:20:00,
2013-03-08 06:25:00,28.6,26.6,30.32,ENE,68,4.0,4.0,92,0.00,,SKC,0.00,VWS V13.00,2013-03-08 12:25:00,
2013-03-08 06:30:00,28.8,26.8,30.32,ENE,67,2.0,5.0,92,0.00,,SKC,0.00,VWS V13.00,2013-03-08 12:30:00,
2013-03-08 06:35:00,29.1,26.8,30.32,ENE,66,4.0,5.0,91,0.00,,SKC,0.00,VWS V13.00,2013-03-08 12:35:00,
2013-03-08 06:40:00,29.6,27.6,30.31,ENE,66,4.0,5.0,92,0.00,,SKC,0.00,VWS V13.00,2013-03-08 12:40:00,
2013-03-08 06:45:00,30.2,27.9,30.31,ENE,57,4.0,5.0,91,0.00,,SKC,0.00,VWS V13.00,2013-03-08 12:45:00,
2013-03-08 06:50:00,30.8,28.2,30.31,ENE,57,2.0,5.0,90,0.00,,SKC,0.00,VWS V13.00,2013-03-08 12:50:00,
2013-03-08 06:55:00,31.4,28.5,30.32,ENE,61,0.0,5.0,89,0.00,,SKC,0.00,VWS V13.00,2013-03-08 12:55:00,
2013-03-08 07:00:00,31.8,28.7,30.33,NE,55,1.0,5.0,88,0.00,,SKC,0.00,VWS V13.00,2013-03-08 13:00:00,
2013-03-08 07:05:00,32.2,28.8,30.33,ENE,61,4.0,6.0,87,0.00,,SKC,0.00,VWS V13.00,2013-03-08 13:05:00,
2013-03-08 07:10:00,32.5,28.8,30.33,ENE,71,4.0,6.0,86,0.00,,SKC,0.00,VWS V13.00,2013-03-08 13:10:00,
2013-03-08 07:15:00,32.8,29.1,30.33,ENE,69,3.0,6.0,86,0.00,,SKC,0.00,VWS V13.00,2013-03-08 13:15:00,
2013-03-08 07:20:00,33.0,29.0,30.32,NE,44,5.0,7.0,85,0.00,,SKC,0.00,VWS V13.00,2013-03-08 13:20:00,
2013-03-08 07:25:00,33.3,29.6,30.33,ENE,62,1.0,7.0,86,0.00,,SKC,0.00,VWS V13.00,2013-03-08 13:25:00,
2013-03-08 07:30:00,33.7,29.7,30.33,ENE,65,5.0,7.0,85,0.00,,SKC,0.00,VWS V13.00,2013-03-08 13:30:00,
2013-03-08 07:35:00,34.1,30.4,30.33,ENE,70,4.0,6.0,86,0.00,,SKC,0.00,VWS V13.00,2013-03-08 13:35:00,
2013-03-08 07:40:00,34.4,29.8,30.34,ENE,62,2.0,7.0,83,0.00,,SKC,0.00,VWS V13.00,2013-03-08 13:40:00,
2013-03-08 07:45:00,34.8,30.5,30.34,East,92,2.0,7.0,84,0.00,,SKC,0.00,VWS V13.00,2013-03-08 13:45:00,
2013-03-08 07:50:00,35.4,30.8,30.34,ENE,78,2.0,7.0,83,0.00,,SKC,0.00,VWS V13.00,2013-03-08 13:50:00,
2013-03-08 07:55:00,35.9,31.0,30.34,ENE,72,2.0,7.0,82,0.00,,SKC,0.00,VWS V13.00,2013-03-08 13:55:00,
2013-03-08 08:00:00,36.0,30.8,30.34,ESE,105,4.0,7.0,81,0.00,,SKC,0.00,VWS V13.00,2013-03-08 14:00:00,
2013-03-08 08:05:00,36.3,31.3,30.35,East,87,4.0,5.0,82,0.00,,SKC,0.00,VWS V13.00,2013-03-08 14:05:00,
2013-03-08 08:10:00,36.8,31.2,30.35,East,86,5.0,6.0,80,0.00,,SKC,0.00,VWS V13.00,2013-03-08 14:10:00,
2013-03-08 08:15:00,37.3,31.7,30.35,NE,55,6.0,6.0,80,0.00,,SKC,0.00,VWS V13.00,2013-03-08 14:15:00,
2013-03-08 08:20:00,37.7,32.1,30.35,East,92,4.0,7.0,80,0.00,,SKC,0.00,VWS V13.00,2013-03-08 14:20:00,
2013-03-08 08:25:00,37.9,31.7,30.35,ENE,75,3.0,7.0,78,0.00,,SKC,0.00,VWS V13.00,2013-03-08 14:25:00,
2013-03-08 08:30:00,38.4,32.5,30.35,East,101,5.0,7.0,79,0.00,,SKC,0.00,VWS V13.00,2013-03-08 14:30:00,
2013-03-08 08:35:00,38.9,32.0,30.35,NE,55,6.0,7.0,76,0.00,,SKC,0.00,VWS V13.00,2013-03-08 14:35:00,
2013-03-08 08:40:00,39.2,32.3,30.35,ESE,111,1.0,7.0,76,0.00,,SKC,0.00,VWS V13.00,2013-03-08 14:40:00,
2013-03-08 08:45:00,39.9,32.6,30.35,East,84,2.0,7.0,75,0.00,,SKC,0.00,VWS V13.00,2013-03-08 14:45:00,
2013-03-08 08:50:00,40.5,32.5,30.35,ESE,103,2.0,7.0,73,0.00,,SKC,0.00,VWS V13.00,2013-03-08 14:50:00,
2013-03-08 08:55:00,41.1,33.1,30.35,ENE,60,4.0,7.0,73,0.00,,SKC,0.00,VWS V13.00,2013-03-08 14:55:00,
2013-03-08 08:59:00,41.6,32.6,30.35,ESE,109,2.0,7.0,70,0.00,,SKC,0.00,VWS V13.00,2013-03-08 14:59:00,
2013-03-08 09:04:00,42.0,33.3,30.36,SE,140,1.0,5.0,71,0.00,,SKC,0.00,VWS V13.00,2013-03-08 15:04:00,
2013-03-08 09:10:00,42.6,33.2,30.35,NNE,17,1.0,5.0,69,0.00,,SKC,0.00,VWS V13.00,2013-03-08 15:10:00,
2013-03-08 09:14:00,42.6,32.8,30.35,NNE,23,4.0,5.0,68,0.00,,SKC,0.00,VWS V13.00,2013-03-08 15:14:00,
2013-03-08 09:19:00,42.7,33.2,30.35,NE,41,0.0,5.0,69,0.00,,SKC,0.00,VWS V13.00,2013-03-08 15:19:00,
2013-03-08 09:24:00,43.2,33.4,30.34,ENE,63,5.0,5.0,68,0.00,,SKC,0.00,VWS V13.00,2013-03-08 15:24:00,
2013-03-08 09:30:00,43.9,32.9,30.34,SE,142,1.0,7.0,65,0.00,,SKC,0.00,VWS V13.00,2013-03-08 15:30:00,
2013-03-08 09:34:00,44.3,33.3,30.35,North,351,0.0,4.0,65,0.00,,SKC,0.00,VWS V13.00,2013-03-08 15:34:00,
2013-03-08 09:39:00,44.6,33.2,30.35,NW,323,1.0,5.0,64,0.00,,SKC,0.00,VWS V13.00,2013-03-08 15:39:00,
2013-03-08 09:44:00,45.1,32.9,30.35,SW,220,4.0,5.0,62,0.00,,SKC,0.00,VWS V13.00,2013-03-08 15:44:00,
2013-03-08 09:49:00,45.6,33.3,30.34,NE,51,0.0,5.0,62,0.00,,SKC,0.00,VWS V13.00,2013-03-08 15:49:00,
2013-03-08 09:55:00,46.1,33.4,30.34,ENE,69,2.0,6.0,61,0.00,,SKC,0.00,VWS V13.00,2013-03-08 15:55:00,
2013-03-08 09:59:00,46.6,33.0,30.35,SE,137,2.0,6.0,59,0.00,,SKC,0.00,VWS V13.00,2013-03-08 15:59:00,
2013-03-08 10:04:00,47.1,33.5,30.35,SSE,154,2.0,4.0,59,0.00,,SKC,0.00,VWS V13.00,2013-03-08 16:04:00,
2013-03-08 10:09:00,47.6,33.6,30.35,ESE,111,4.0,4.0,58,0.00,,SKC,0.00,VWS V13.00,2013-03-08 16:09:00,
2013-03-08 10:14:00,48.0,32.6,30.35,East,94,4.0,4.0,55,0.00,,SKC,0.00,VWS V13.00,2013-03-08 16:14:00,
2013-03-08 10:19:00,48.5,32.2,30.35,NE,39,1.0,4.0,53,0.00,,SKC,0.00,VWS V13.00,2013-03-08 16:19:00,
2013-03-08 10:24:00,48.8,32.4,30.35,NE,38,1.0,6.0,53,0.00,,SKC,0.00,VWS V13.00,2013-03-08 16:24:00,
2013-03-08 10:29:00,49.4,33.0,30.35,NW,313,1.0,6.0,53,0.00,,SKC,0.00,VWS V13.00,2013-03-08 16:29:00,
2013-03-08 10:34:00,49.8,31.4,30.35,SSW,209,0.0,3.0,49,0.00,,SKC,0.00,VWS V13.00,2013-03-08 16:34:00,
2013-03-08 10:39:00,50.4,33.0,30.35,East,80,1.0,5.0,51,0.00,,SKC,0.00,VWS V13.00,2013-03-08 16:39:00,
2013-03-08 10:44:00,50.8,33.3,30.34,SE,129,1.0,5.0,51,0.00,,SKC,0.00,VWS V13.00,2013-03-08 16:44:00,
2013-03-08 10:49:00,51.0,32.0,30.34,NE,39,0.0,5.0,48,0.00,,SKC,0.00,VWS V13.00,2013-03-08 16:49:00,
2013-03-08 10:54:00,51.3,32.3,30.34,North,355,0.0,5.0,48,0.00,,SKC,0.00,VWS V13.00,2013-03-08 16:54:00,
2013-03-08 10:59:00,51.5,32.0,30.34,NW,321,2.0,5.0,47,0.00,,SKC,0.00,VWS V13.00,2013-03-08 16:59:00,
2013-03-08 11:04:00,52.1,33.0,30.33,ESE,105,2.0,9.0,48,0.00,,SKC,0.00,VWS V13.00,2013-03-08 17:04:00,
2013-03-08 11:09:00,52.6,35.5,30.33,South,169,2.0,9.0,52,0.00,,SKC,0.00,VWS V13.00,2013-03-08 17:09:00,
2013-03-08 11:14:00,53.2,34.0,30.32,ESE,119,1.0,9.0,48,0.00,,SKC,0.00,VWS V13.00,2013-03-08 17:14:00,
2013-03-08 11:19:00,53.6,33.3,30.32,NNW,340,4.0,9.0,46,0.00,,SKC,0.00,VWS V13.00,2013-03-08 17:19:00,
2013-03-08 11:24:00,53.8,33.0,30.31,ESE,109,7.0,9.0,45,0.00,,SKC,0.00,VWS V13.00,2013-03-08 17:24:00,
2013-03-08 11:29:00,54.0,30.9,30.31,East,91,2.0,9.0,41,0.00,,SKC,0.00,VWS V13.00,2013-03-08 17:29:00,
2013-03-08 11:34:00,54.5,33.0,30.31,SE,126,4.0,5.0,44,0.00,,SKC,0.00,VWS V13.00,2013-03-08 17:34:00,
2013-03-08 11:39:00,55.1,31.2,30.31,NE,53,9.0,10.0,40,0.00,,SKC,0.00,VWS V13.00,2013-03-08 17:39:00,
2013-03-08 11:44:00,55.2,31.3,30.30,ENE,69,7.0,10.0,40,0.00,,SKC,0.00,VWS V13.00,2013-03-08 17:44:00,
2013-03-08 11:49:00,55.6,28.4,30.30,ESE,106,4.0,10.0,35,0.00,,SKC,0.00,VWS V13.00,2013-03-08 17:49:00,
2013-03-08 11:54:00,55.8,30.6,30.29,ENE,67,6.0,11.0,38,0.00,,SKC,0.00,VWS V13.00,2013-03-08 17:54:00,
2013-03-08 11:59:00,56.1,30.2,30.29,ESE,104,2.0,11.0,37,0.00,,SKC,0.00,VWS V13.00,2013-03-08 17:59:00,
2013-03-08 12:04:00,56.4,28.4,30.29,ENE,69,8.0,11.0,34,0.00,,SKC,0.00,VWS V13.00,2013-03-08 18:04:00,
2013-03-08 12:09:00,56.6,27.9,30.28,NE,52,6.0,13.0,33,0.00,,SKC,0.00,VWS V13.00,2013-03-08 18:09:00,
2013-03-08 12:14:00,57.1,29.7,30.28,ENE,74,10.0,13.0,35,0.00,,SKC,0.00,VWS V13.00,2013-03-08 18:14:00,
2013-03-08 12:19:00,57.5,28.6,30.28,ENE,57,2.0,13.0,33,0.00,,SKC,0.00,VWS V13.00,2013-03-08 18:19:00,
2013-03-08 12:24:00,58.1,26.0,30.28,NE,55,6.0,13.0,29,0.00,,SKC,0.00,VWS V13.00,2013-03-08 18:24:00,
2013-03-08 12:29:00,58.2,26.9,30.28,SE,134,1.0,13.0,30,0.00,,SKC,0.00,VWS V13.00,2013-03-08 18:29:00,
2013-03-08 12:34:00,58.6,28.9,30.27,East,86,4.0,5.0,32,0.00,,SKC,0.00,VWS V13.00,2013-03-08 18:34:00,
2013-03-08 12:39:00,58.9,28.3,30.26,East,86,5.0,10.0,31,0.00,,SKC,0.00,VWS V13.00,2013-03-08 18:39:00,
2013-03-08 12:44:00,59.0,29.2,30.26,ENE,57,5.0,10.0,32,0.00,,SKC,0.00,VWS V13.00,2013-03-08 18:44:00,
2013-03-08 12:49:00,59.4,30.3,30.26,ENE,67,7.0,12.0,33,0.00,,SKC,0.00,VWS V13.00,2013-03-08 18:49:00,
2013-03-08 12:54:00,59.5,28.1,30.26,East,94,7.0,12.0,30,0.00,,SKC,0.00,VWS V13.00,2013-03-08 18:54:00,
2013-03-08 12:59:00,59.5,28.1,30.26,ESE,104,0.0,12.0,30,0.00,,SKC,0.00,VWS V13.00,2013-03-08 18:59:00,
2013-03-08 13:04:00,59.8,29.1,30.26,ENE,65,7.0,8.0,31,0.00,,SKC,0.00,VWS V13.00,2013-03-08 19:04:00,
2013-03-08 13:09:00,59.8,29.9,30.26,NE,53,7.0,10.0,32,0.00,,SKC,0.00,VWS V13.00,2013-03-08 19:09:00,
2013-03-08 13:14:00,60.0,28.5,30.25,NNW,337,4.0,10.0,30,0.00,,SKC,0.00,VWS V13.00,2013-03-08 19:14:00,
2013-03-08 13:19:00,60.3,29.6,30.25,ENE,61,10.0,10.0,31,0.00,,SKC,0.00,VWS V13.00,2013-03-08 19:19:00,
2013-03-08 13:24:00,60.4,31.2,30.25,NE,51,0.0,10.0,33,0.00,,SKC,0.00,VWS V13.00,2013-03-08 19:24:00,
2013-03-08 13:29:00,60.7,28.3,30.25,ENE,61,7.0,10.0,29,0.00,,SKC,0.00,VWS V13.00,2013-03-08 19:29:00,
2013-03-08 13:34:00,61.2,30.4,30.25,ENE,59,4.0,6.0,31,0.00,,SKC,0.00,VWS V13.00,2013-03-08 19:34:00,
2013-03-08 13:39:00,61.4,30.5,30.25,NNE,30,8.0,8.0,31,0.00,,SKC,0.00,VWS V13.00,2013-03-08 19:39:00,
2013-03-08 13:44:00,61.0,30.2,30.24,NNE,17,4.0,10.0,31,0.00,,SKC,0.00,VWS V13.00,2013-03-08 19:44:00,
2013-03-08 13:49:00,61.1,31.0,30.24,North,355,2.0,10.0,32,0.00,,SKC,0.00,VWS V13.00,2013-03-08 19:49:00,
2013-03-08 13:54:00,60.8,33.0,30.24,NNW,336,7.0,10.0,35,0.00,,SKC,0.00,VWS V13.00,2013-03-08 19:54:00,
2013-03-08 13:59:00,60.7,32.2,30.25,WNW,302,5.0,10.0,34,0.00,,SKC,0.00,VWS V13.00,2013-03-08 19:59:00,
2013-03-08 14:04:00,61.1,34.0,30.24,NW,319,5.0,7.0,36,0.00,,SKC,0.00,VWS V13.00,2013-03-08 20:04:00,
2013-03-08 14:09:00,61.6,34.4,30.25,NNW,334,5.0,9.0,36,0.00,,SKC,0.00,VWS V13.00,2013-03-08 20:09:00,
2013-03-08 14:14:00,61.5,33.6,30.25,NNW,342,5.0,11.0,35,0.00,,SKC,0.00,VWS V13.00,2013-03-08 20:14:00,
2013-03-08 14:19:00,61.1,33.3,30.25,NW,311,10.0,11.0,35,0.00,,SKC,0.00,VWS V13.00,2013-03-08 20:19:00,
2013-03-08 14:24:00,61.1,33.3,30.24,WNW,287,2.0,11.0,35,0.00,,SKC,0.00,VWS V13.00,2013-03-08 20:24:00,
2013-03-08 14:29:00,61.2,34.1,30.25,NW,306,10.0,11.0,36,0.00,,SKC,0.00,VWS V13.00,2013-03-08 20:29:00,
2013-03-08 14:34:00,61.1,33.3,30.24,NNW,337,2.0,9.0,35,0.00,,SKC,0.00,VWS V13.00,2013-03-08 20:34:00,
2013-03-08 14:39:00,61.3,34.1,30.24,NW,304,10.0,10.0,36,0.00,,SKC,0.00,VWS V13.00,2013-03-08 20:39:00,
2013-03-08 14:44:00,61.2,34.7,30.24,NW,313,9.0,10.0,37,0.00,,SKC,0.00,VWS V13.00,2013-03-08 20:44:00,
2013-03-08 14:49:00,61.1,31.8,30.24,NNW,346,7.0,10.0,33,0.00,,SKC,0.00,VWS V13.00,2013-03-08 20:49:00,
2013-03-08 14:54:00,61.1,33.3,30.24,NNW,339,7.0,11.0,35,0.00,,SKC,0.00,VWS V13.00,2013-03-08 20:54:00,
2013-03-08 14:59:00,61.4,32.8,30.24,WNW,287,7.0,11.0,34,0.00,,SKC,0.00,VWS V13.00,2013-03-08 20:59:00,
2013-03-08 15:04:00,61.7,32.3,30.24,NW,304,6.0,13.0,33,0.00,,SKC,0.00,VWS V13.00,2013-03-08 21:04:00,
2013-03-08 15:09:00,62.2,32.0,30.25,NNE,18,5.0,13.0,32,0.00,,SKC,0.00,VWS V13.00,2013-03-08 21:09:00,
2013-03-08 15:14:00,62.2,32.0,30.24,NNE,17,5.0,13.0,32,0.00,,SKC,0.00,VWS V13.00,2013-03-08 21:14:00,
2013-03-08 15:19:00,62.1,31.9,30.24,NNE,26,9.0,13.0,32,0.00,,SKC,0.00,VWS V13.00,2013-03-08 21:19:00,
2013-03-08 15:24:00,61.8,32.4,30.24,ENE,59,8.0,13.0,33,0.00,,SKC,0.00,VWS V13.00,2013-03-08 21:24:00,
2013-03-08 15:29:00,61.7,31.6,30.24,North,5,7.0,13.0,32,0.00,,SKC,0.00,VWS V13.00,2013-03-08 21:29:00,
2013-03-08 15:34:00,61.7,30.0,30.23,NNE,12,5.0,8.0,30,0.00,,SKC,0.00,VWS V13.00,2013-03-08 21:34:00,
2013-03-08 15:39:00,61.7,30.0,30.24,North,11,4.0,8.0,30,0.00,,SKC,0.00,VWS V13.00,2013-03-08 21:39:00,
2013-03-08 15:44:00,61.8,30.9,30.24,NNE,19,5.0,9.0,31,0.00,,SKC,0.00,VWS V13.00,2013-03-08 21:44:00,
2013-03-08 15:49:00,61.8,29.2,30.24,NNE,13,5.0,9.0,29,0.00,,SKC,0.00,VWS V13.00,2013-03-08 21:49:00,
2013-03-08 15:54:00,61.8,30.1,30.24,NNE,20,9.0,9.0,30,0.00,,SKC,0.00,VWS V13.00,2013-03-08 21:54:00,
2013-03-08 15:59:00,61.6,28.2,30.24,ENE,72,4.0,11.0,28,0.00,,SKC,0.00,VWS V13.00,2013-03-08 21:59:00,
2013-03-08 16:04:00,61.5,29.0,30.24,NE,42,8.0,10.0,29,0.00,,SKC,0.00,VWS V13.00,2013-03-08 22:04:00,
2013-03-08 16:09:00,61.4,29.7,30.24,NNE,25,5.0,10.0,30,0.00,,SKC,0.00,VWS V13.00,2013-03-08 22:09:00,
2013-03-08 16:14:00,61.4,29.7,30.24,NE,34,6.0,10.0,30,0.00,,SKC,0.00,VWS V13.00,2013-03-08 22:14:00,
2013-03-08 16:19:00,61.4,28.0,30.24,NE,51,0.0,10.0,28,0.00,,SKC,0.00,VWS V13.00,2013-03-08 22:19:00,
2013-03-08 16:24:00,61.5,30.6,30.24,NE,55,7.0,10.0,31,0.00,,SKC,0.00,VWS V13.00,2013-03-08 22:24:00,
2013-03-08 16:29:00,61.1,29.5,30.24,NE,38,6.0,10.0,30,0.00,,SKC,0.00,VWS V13.00,2013-03-08 22:29:00,
2013-03-08 16:34:00,60.8,29.2,30.24,NE,42,7.0,9.0,30,0.00,,SKC,0.00,VWS V13.00,2013-03-08 22:34:00,
2013-03-08 16:39:00,60.5,28.1,30.24,NNE,32,6.0,9.0,29,0.00,,SKC,0.00,VWS V13.00,2013-03-08 22:39:00,
2013-03-08 16:44:00,60.5,27.3,30.24,NE,36,5.0,9.0,28,0.00,,SKC,0.00,VWS V13.00,2013-03-08 22:44:00,
2013-03-08 16:49:00,60.5,26.4,30.24,North,355,6.0,9.0,27,0.00,,SKC,0.00,VWS V13.00,2013-03-08 22:49:00,
2013-03-08 16:54:00,60.3,26.2,30.24,North,5,5.0,9.0,27,0.00,,SKC,0.00,VWS V13.00,2013-03-08 22:54:00,
2013-03-08 16:59:00,60.1,26.9,30.24,North,355,4.0,9.0,28,0.00,,SKC,0.00,VWS V13.00,2013-03-08 22:59:00,
2013-03-08 17:04:00,60.1,26.9,30.25,NW,325,6.0,6.0,28,0.00,,SKC,0.00,VWS V13.00,2013-03-08 23:04:00,
2013-03-08 17:09:00,60.0,27.7,30.25,NNW,348,1.0,6.0,29,0.00,,SKC,0.00,VWS V13.00,2013-03-08 23:09:00,
2013-03-08 17:14:00,59.9,25.0,30.25,North,351,4.0,6.0,26,0.00,,SKC,0.00,VWS V13.00,2013-03-08 23:14:00,
2013-03-08 17:19:00,59.6,26.5,30.25,NNW,346,1.0,6.0,28,0.00,,SKC,0.00,VWS V13.00,2013-03-08 23:19:00,
2013-03-08 17:24:00,59.1,26.0,30.25,North,355,1.0,6.0,28,0.00,,SKC,0.00,VWS V13.00,2013-03-08 23:24:00,
2013-03-08 17:29:00,58.6,25.6,30.26,North,355,1.0,6.0,28,0.00,,SKC,0.00,VWS V13.00,2013-03-08 23:29:00,
2013-03-08 17:34:00,58.2,26.1,30.26,North,355,0.0,2.0,29,0.00,,SKC,0.00,VWS V13.00,2013-03-08 23:34:00,
2013-03-08 17:39:00,57.7,26.5,30.25,North,355,1.0,3.0,30,0.00,,SKC,0.00,VWS V13.00,2013-03-08 23:39:00,
2013-03-08 17:44:00,57.2,26.9,30.26,North,355,0.0,3.0,31,0.00,,SKC,0.00,VWS V13.00,2013-03-08 23:44:00,
2013-03-08 17:49:00,56.5,27.0,30.26,North,355,0.0,3.0,32,0.00,,SKC,0.00,VWS V13.00,2013-03-08 23:49:00,
2013-03-08 17:54:00,55.6,27.0,30.26,North,355,0.0,3.0,33,0.00,,SKC,0.00,VWS V13.00,2013-03-08 23:54:00,
2013-03-08 17:59:00,55.0,27.2,30.26,North,355,0.0,3.0,34,0.00,,SKC,0.00,VWS V13.00,2013-03-08 23:59:00,
2013-03-08 18:04:00,54.7,26.9,30.26,North,355,0.0,0.0,34,0.00,,SKC,0.00,VWS V13.00,2013-03-09 00:04:00,
2013-03-08 18:09:00,54.6,26.1,30.26,North,355,0.0,1.0,33,0.00,,SKC,0.00,VWS V13.00,2013-03-09 00:09:00,
2013-03-08 18:14:00,54.6,25.4,30.26,North,355,0.0,1.0,32,0.00,,SKC,0.00,VWS V13.00,2013-03-09 00:14:00,
2013-03-08 18:19:00,54.2,26.5,30.26,North,355,0.0,1.0,34,0.00,,SKC,0.00,VWS V13.00,2013-03-09 00:19:00,
2013-03-08 18:24:00,53.8,26.8,30.25,North,9,1.0,1.0,35,0.00,,SKC,0.00,VWS V13.00,2013-03-09 00:24:00,
2013-03-08 18:29:00,53.2,27.0,30.25,ENE,61,1.0,2.0,36,0.00,,SKC,0.00,VWS V13.00,2013-03-09 00:29:00,
2013-03-08 18:34:00,52.7,26.5,30.25,ENE,61,2.0,2.0,36,0.00,,SKC,0.00,VWS V13.00,2013-03-09 00:34:00,
2013-03-08 18:39:00,52.3,27.5,30.25,ENE,61,0.0,2.0,38,0.00,,SKC,0.00,VWS V13.00,2013-03-09 00:39:00,
2013-03-08 18:44:00,51.9,27.7,30.25,ENE,61,0.0,2.0,39,0.00,,SKC,0.00,VWS V13.00,2013-03-09 00:44:00,
2013-03-08 18:49:00,51.4,27.3,30.26,ENE,61,0.0,2.0,39,0.00,,SKC,0.00,VWS V13.00,2013-03-09 00:49:00,
2013-03-08 18:54:00,51.5,26.8,30.25,ENE,61,0.0,2.0,38,0.00,,SKC,0.00,VWS V13.00,2013-03-09 00:54:00,
2013-03-08 18:59:00,51.6,27.5,30.26,SE,126,1.0,4.0,39,0.00,,SKC,0.00,VWS V13.00,2013-03-09 00:59:00,
2013-03-08 19:04:00,51.5,26.8,30.25,SE,126,0.0,2.0,38,0.00,,SKC,0.00,VWS V13.00,2013-03-09 01:04:00,
2013-03-08 19:09:00,51.7,26.3,30.25,SE,126,0.0,2.0,37,0.00,,SKC,0.00,VWS V13.00,2013-03-09 01:09:00,
2013-03-08 19:14:00,51.8,26.4,30.26,SE,126,0.0,2.0,37,0.00,,SKC,0.00,VWS V13.00,2013-03-09 01:14:00,
2013-03-08 19:19:00,52.2,26.7,30.26,SE,126,0.0,2.0,37,0.00,,SKC,0.00,VWS V13.00,2013-03-09 01:19:00,
2013-03-08 19:24:00,52.3,27.5,30.26,SE,126,0.0,2.0,38,0.00,,SKC,0.00,VWS V13.00,2013-03-09 01:24:00,
2013-03-08 19:29:00,51.7,28.2,30.26,SE,126,0.0,2.0,40,0.00,,SKC,0.00,VWS V13.00,2013-03-09 01:29:00,
2013-03-08 19:34:00,51.1,26.4,30.26,SE,126,0.0,0.0,38,0.00,,SKC,0.00,VWS V13.00,2013-03-09 01:34:00,
2013-03-08 19:39:00,50.6,29.0,30.26,SE,126,0.0,0.0,43,0.00,,SKC,0.00,VWS V13.00,2013-03-09 01:39:00,
2013-03-08 19:44:00,49.7,27.6,30.26,SE,126,0.0,0.0,42,0.00,,SKC,0.00,VWS V13.00,2013-03-09 01:44:00,
2013-03-08 19:49:00,49.2,27.1,30.27,SE,126,0.0,0.0,42,0.00,,SKC,0.00,VWS V13.00,2013-03-09 01:49:00,
2013-03-08 19:54:00,49.2,26.5,30.26,SE,126,0.0,0.0,41,0.00,,SKC,0.00,VWS V13.00,2013-03-09 01:54:00,
2013-03-08 19:59:00,49.3,24.8,30.26,SE,126,0.0,0.0,38,0.00,,SKC,0.00,VWS V13.00,2013-03-09 01:59:00,
2013-03-08 20:04:00,49.5,25.6,30.25,SE,126,0.0,0.0,39,0.00,,SKC,0.00,VWS V13.00,2013-03-09 02:04:00,
2013-03-08 20:09:00,49.7,27.6,30.25,SE,126,0.0,0.0,42,0.00,,SKC,0.00,VWS V13.00,2013-03-09 02:09:00,
2013-03-08 20:14:00,49.3,26.0,30.25,SE,126,0.0,0.0,40,0.00,,SKC,0.00,VWS V13.00,2013-03-09 02:14:00,
2013-03-08 20:19:00,48.9,25.0,30.25,SE,126,0.0,0.0,39,0.00,,SKC,0.00,VWS V13.00,2013-03-09 02:19:00,
2013-03-08 20:24:00,48.8,25.6,30.25,SE,126,0.0,0.0,40,0.00,,SKC,0.00,VWS V13.00,2013-03-09 02:24:00,
2013-03-08 20:29:00,48.9,24.4,30.25,SE,126,0.0,0.0,38,0.00,,SKC,0.00,VWS V13.00,2013-03-09 02:29:00,
2013-03-08 20:34:00,48.7,26.1,30.25,SE,126,0.0,0.0,41,0.00,,SKC,0.00,VWS V13.00,2013-03-09 02:34:00,
2013-03-08 20:39:00,48.6,24.2,30.25,SE,126,0.0,0.0,38,0.00,,SKC,0.00,VWS V13.00,2013-03-09 02:39:00,
2013-03-08 20:44:00,48.7,24.2,30.25,SE,126,0.0,0.0,38,0.00,,SKC,0.00,VWS V13.00,2013-03-09 02:44:00,
2013-03-08 20:49:00,48.9,23.8,30.25,SE,126,0.0,0.0,37,0.00,,SKC,0.00,VWS V13.00,2013-03-09 02:49:00,
2013-03-08 20:54:00,48.6,26.0,30.25,SE,126,0.0,0.0,41,0.00,,SKC,0.00,VWS V13.00,2013-03-09 02:54:00,
2013-03-08 20:59:00,47.8,29.1,30.25,SE,126,0.0,0.0,48,0.00,,SKC,0.00,VWS V13.00,2013-03-09 02:59:00,
2013-03-08 21:04:00,46.3,30.1,30.25,ESE,116,0.0,0.0,53,0.00,,SKC,0.00,VWS V13.00,2013-03-09 03:04:00,
2013-03-08 21:09:00,45.4,27.9,30.24,ESE,116,0.0,0.0,50,0.00,,SKC,0.00,VWS V13.00,2013-03-09 03:09:00,
2013-03-08 21:14:00,44.9,26.9,30.24,ESE,116,0.0,0.0,49,0.00,,SKC,0.00,VWS V13.00,2013-03-09 03:14:00,
2013-03-08 21:19:00,44.7,26.7,30.24,ESE,116,0.0,0.0,49,0.00,,SKC,0.00,VWS V13.00,2013-03-09 03:19:00,
2013-03-08 21:24:00,44.6,25.1,30.24,SE,124,0.0,2.0,46,0.00,,SKC,0.00,VWS V13.00,2013-03-09 03:24:00,
2013-03-08 21:29:00,45.1,28.5,30.24,SE,124,0.0,2.0,52,0.00,,SKC,0.00,VWS V13.00,2013-03-09 03:29:00,
2013-03-08 21:34:00,44.7,28.6,30.24,SE,124,0.0,0.0,53,0.00,,SKC,0.00,VWS V13.00,2013-03-09 03:34:00,
2013-03-08 21:39:00,44.1,30.7,30.24,SE,124,0.0,0.0,59,0.00,,SKC,0.00,VWS V13.00,2013-03-09 03:39:00,
2013-03-08 21:44:00,43.3,29.1,30.24,SE,124,0.0,0.0,57,0.00,,SKC,0.00,VWS V13.00,2013-03-09 03:44:00,
2013-03-08 21:49:00,42.9,30.8,30.24,SE,124,0.0,0.0,62,0.00,,SKC,0.00,VWS V13.00,2013-03-09 03:49:00,
2013-03-08 21:54:00,42.6,30.9,30.24,East,99,0.0,1.0,63,0.00,,SKC,0.00,VWS V13.00,2013-03-09 03:54:00,
2013-03-08 21:59:00,42.4,29.5,30.24,East,94,0.0,2.0,60,0.00,,SKC,0.00,VWS V13.00,2013-03-09 03:59:00,
2013-03-08 22:04:00,42.3,30.2,30.23,East,94,0.0,0.0,62,0.00,,SKC,0.00,VWS V13.00,2013-03-09 04:04:00,
2013-03-08 22:09:00,42.1,29.2,30.24,ESE,105,0.0,4.0,60,0.00,,SKC,0.00,VWS V13.00,2013-03-09 04:09:00,
2013-03-08 22:14:00,42.4,29.1,30.24,ESE,110,0.0,4.0,59,0.00,,SKC,0.00,VWS V13.00,2013-03-09 04:14:00,
2013-03-08 22:19:00,42.7,28.5,30.25,ESE,110,0.0,4.0,57,0.00,,SKC,0.00,VWS V13.00,2013-03-09 04:19:00,
2013-03-08 22:24:00,42.7,29.0,30.25,ESE,110,0.0,4.0,58,0.00,,SKC,0.00,VWS V13.00,2013-03-09 04:24:00,
2013-03-08 22:29:00,42.6,26.7,30.25,ESE,110,0.0,4.0,53,0.00,,SKC,0.00,VWS V13.00,2013-03-09 04:29:00,
2013-03-08 22:34:00,42.8,24.5,30.24,ESE,110,0.0,2.0,48,0.00,,SKC,0.00,VWS V13.00,2013-03-09 04:34:00,
2013-03-08 22:39:00,43.6,25.7,30.24,ESE,110,0.0,2.0,49,0.00,,SKC,0.00,VWS V13.00,2013-03-09 04:39:00,
2013-03-08 22:44:00,43.7,28.2,30.24,ESE,110,0.0,2.0,54,0.00,,SKC,0.00,VWS V13.00,2013-03-09 04:44:00,
2013-03-08 22:49:00,43.4,28.3,30.24,ESE,110,0.0,2.0,55,0.00,,SKC,0.00,VWS V13.00,2013-03-09 04:49:00,
2013-03-08 22:53:00,43.0,30.5,30.24,ESE,110,0.0,2.0,61,0.00,,SKC,0.00,VWS V13.00,2013-03-09 04:53:00,
2013-03-08 22:58:00,42.5,32.3,30.24,ESE,110,0.0,2.0,67,0.00,,SKC,0.00,VWS V13.00,2013-03-09 04:58:00,
2013-03-08 23:00:00,42.4,32.2,30.24,ESE,110,0.0,2.0,67,0.00,,SKC,0.00,VWS V13.00,2013-03-09 05:00:00,
2013-03-08 23:05:00,41.8,32.4,30.23,ESE,110,0.0,0.0,69,0.00,,SKC,0.00,VWS V13.00,2013-03-09 05:05:00,
2013-03-08 23:10:00,41.2,32.5,30.23,ESE,110,0.0,0.0,71,0.00,,SKC,0.00,VWS V13.00,2013-03-09 05:10:00,
2013-03-08 23:15:00,40.8,32.5,30.24,ESE,110,0.0,0.0,72,0.00,,SKC,0.00,VWS V13.00,2013-03-09 05:15:00,
2013-03-08 23:20:00,40.5,31.9,30.24,ESE,110,0.0,0.0,71,0.00,,SKC,0.00,VWS V13.00,2013-03-09 05:20:00,
2013-03-08 23:25:00,40.4,30.0,30.24,ESE,110,0.0,0.0,66,0.00,,SKC,0.00,VWS V13.00,2013-03-09 05:25:00,
2013-03-08 23:30:00,40.5,30.8,30.23,ESE,110,0.0,0.0,68,0.00,,SKC,0.00,VWS V13.00,2013-03-09 05:30:00,
2013-03-08 23:35:00,40.4,30.0,30.23,ESE,110,0.0,0.0,66,0.00,,SKC,0.00,VWS V13.00,2013-03-09 05:35:00,
2013-03-08 23:40:00,40.3,29.9,30.23,ESE,110,0.0,0.0,66,0.00,,SKC,0.00,VWS V13.00,2013-03-09 05:40:00,
2013-03-08 23:45:00,40.4,29.6,30.23,ESE,110,0.0,0.0,65,0.00,,SKC,0.00,VWS V13.00,2013-03-09 05:45:00,
2013-03-08 23:50:00,40.5,28.9,30.22,ESE,110,0.0,0.0,63,0.00,,SKC,0.00,VWS V13.00,2013-03-09 05:50:00,
2013-03-08 23:55:00,40.5,29.3,30.22,ESE,110,0.0,0.0,64,0.00,,SKC,0.00,VWS V13.00,2013-03-09 05:55:00,